Find Starlink 32735

NORAD ID: 63044 Int'l Des: 2025-034 Owner: SPXS Country: US Constellation: starlink operational
LEOCIRCULAR

Current View

Loading 3D Globe...

About Starlink 32735

Description loading...

Upcoming Passes

Passes for default location (London). Set your location on the main map for personalized predictions.

Altitude History

Loading altitude history...

Two-Line Element Set

1 63044U 25034R 26149.71726382 .00015634 00000-0 47285-3 0 9997
2 63044 53.1589 253.7516 0000882 72.7297 287.3803 15.34400791 71329
Epoch: May 29, 2026 • Age: 20 hours

Current Status

Altitude 463.3 km
Velocity 7.64 km/s
Sub-Earth Point 26.37°N, 178.13°E
Launch Date Feb 18, 2025
Age 1.2 years
Type internet

Technical Details

Classification Payload
Mass 730.00 kg
Dry Mass 700.00 kg
Total Mass 730.00 kg
Length 0.30 m
Diameter 4.10 m
Span 29.00 m
Shape Box + pan
Manufacturer SPXS
Bus Type Starlink V2M
Phase Status In Orbit
Owner/State SPXS/US

Most Searched